York, NE

3:51 PM CST on December 06, 2019 (GMT -0600)
York Municipal

Weather History for KJYR - October, 2019

Change the Weather History Date:

Wednesday, October 30, 2019

  Actual Average Record
Temperature  
Mean Temperature 26 °F -  
Max Temperature 32 °F 57 °F 85 °F (1950)
Min Temperature 17 °F 37 °F 17 °F (1991)
Degree Days  
Heating Degree Days 40    
Moisture  
Dew Point 20 °F    
Average Humidity 80    
Maximum Humidity 100    
Minimum Humidity 60    
Precipitation  
Precipitation 0.00 in - - ()
Sea Level Pressure  
Sea Level Pressure 30.33 in    
Wind  
Wind Speed 12 mph (NNW)    
Max Wind Speed 16 mph    
Max Gust Speed 24 mph    
Visibility 8 miles    
Events Snow    
Averages and records for this station are not official NWS values.
T = Trace of Precipitation, MM = Missing Value Source: NWS Daily Summary

Daily Weather History Graph

Daily Weather History Graph

Search for Another Location

Airport or City:

Astronomy

Oct. 30, 2019 Rise Set
Actual Time 7:58 AM CDT 6:29 PM CDT
Civil Twilight 7:30 AM CDT 6:57 PM CDT
Nautical Twilight 6:57 AM CDT 7:29 PM CDT
Astronomical Twilight 6:25 AM CDT 8:01 PM CDT
Moon 10:44 AM CDT (10/30) 8:36 PM CDT (10/30)
Length of Visible Light 11h 27m
Length of Day
10h 30m
Waxing Crescent, 9% of the Moon is Illuminated
Oct 30
Waxing Crescent
Nov 4
First Quarter
Nov 12
Full
Nov 19
Last Quarter
Nov 26
New

Hourly Weather History & Observations

Time (CDT) Temp. Windchill Dew Point Humidity Pressure Visibility Wind Dir Wind Speed Gust Speed Precip Events Conditions
12:15 AM 28.4 °F 19.1 °F 19.4 °F 69% 30.36 in 10.0 mi North 10.4 mph - N/A   Overcast
12:35 AM 28.4 °F 17.5 °F 19.4 °F 69% 30.36 in 10.0 mi North 13.8 mph 18.4 mph N/A   Overcast
12:55 AM 28.4 °F 17.5 °F 17.6 °F 64% 30.36 in 10.0 mi North 13.8 mph 19.6 mph N/A   Overcast
1:15 AM 26.6 °F 15.2 °F 17.6 °F 69% 30.36 in 10.0 mi North 13.8 mph 23.0 mph N/A   Overcast
1:35 AM 26.6 °F 15.2 °F 17.6 °F 69% 30.36 in 10.0 mi North 13.8 mph 19.6 mph N/A   Overcast
1:55 AM 26.6 °F 15.2 °F 15.8 °F 64% 30.37 in 10.0 mi North 13.8 mph 23.0 mph N/A   Overcast
2:15 AM 26.6 °F 14.3 °F 15.8 °F 64% 30.37 in 10.0 mi North 16.1 mph 20.7 mph N/A   Overcast
2:35 AM 26.6 °F 15.2 °F 15.8 °F 64% 30.38 in 10.0 mi North 13.8 mph - N/A   Overcast
3:15 AM 26.6 °F 15.2 °F 17.6 °F 69% 30.36 in 10.0 mi North 13.8 mph 19.6 mph N/A   Overcast
3:35 AM 26.6 °F 15.7 °F 15.8 °F 64% 30.37 in 10.0 mi North 12.7 mph 19.6 mph N/A   Overcast
3:55 AM 26.6 °F 15.7 °F 17.6 °F 69% 30.37 in 10.0 mi North 12.7 mph 16.1 mph N/A   Overcast
4:15 AM 26.6 °F 16.2 °F 17.6 °F 69% 30.38 in 5.0 mi North 11.5 mph 21.9 mph N/A Snow Light Snow
4:35 AM 24.8 °F 12.9 °F 21.2 °F 86% 30.37 in 3.0 mi North 13.8 mph 21.9 mph N/A Snow Light Snow
4:55 AM 24.8 °F 13.4 °F 23.0 °F 93% 30.37 in 2.5 mi North 12.7 mph 19.6 mph N/A Snow Light Snow
5:15 AM 24.8 °F 13.4 °F 23.0 °F 93% 30.36 in 2.5 mi North 12.7 mph 18.4 mph N/A Snow Light Snow
5:35 AM 24.8 °F 12.4 °F 21.2 °F 86% 30.36 in 5.0 mi North 15.0 mph 19.6 mph N/A Snow Light Snow
5:55 AM 24.8 °F 13.4 °F 21.2 °F 86% 30.36 in 10.0 mi North 12.7 mph 20.7 mph N/A Snow Light Snow
6:15 AM 24.8 °F 12.4 °F 21.2 °F 86% 30.37 in 9.0 mi North 15.0 mph 20.7 mph N/A Snow Light Snow
6:35 AM 24.8 °F 12.9 °F 21.2 °F 86% 30.37 in 6.0 mi North 13.8 mph 19.6 mph N/A Snow Light Snow
6:55 AM 24.8 °F 11.9 °F 23.0 °F 93% 30.37 in 3.0 mi North 16.1 mph 21.9 mph N/A Snow Light Snow
7:15 AM 24.8 °F 12.9 °F 23.0 °F 93% 30.37 in 5.0 mi North 13.8 mph 21.9 mph N/A Snow Light Snow
7:35 AM 24.8 °F 12.9 °F 23.0 °F 93% 30.38 in 5.0 mi North 13.8 mph 19.6 mph N/A Snow Light Snow
7:55 AM 23.0 °F 10.6 °F 23.0 °F 100% 30.37 in 4.0 mi North 13.8 mph 19.6 mph N/A Snow Light Snow
8:15 AM 23.0 °F 11.1 °F 23.0 °F 100% 30.37 in 2.5 mi North 12.7 mph 17.3 mph N/A Snow Light Snow
8:35 AM 23.0 °F 13.1 °F 23.0 °F 100% 30.39 in 2.5 mi North 9.2 mph - N/A Snow Light Snow
8:55 AM 24.8 °F 14.6 °F 23.0 °F 93% 30.39 in 2.0 mi North 10.4 mph - N/A Snow Light Snow
9:15 AM 24.8 °F 13.4 °F 23.0 °F 93% 30.39 in 2.5 mi North 12.7 mph 21.9 mph N/A Snow Light Snow
9:35 AM 24.8 °F 12.4 °F 21.2 °F 86% 30.39 in 4.0 mi North 15.0 mph 19.6 mph N/A Snow Light Snow
9:55 AM 24.8 °F 12.4 °F 23.0 °F 93% 30.39 in 6.0 mi North 15.0 mph 23.0 mph N/A Snow Light Snow
10:15 AM 24.8 °F 12.4 °F 23.0 °F 93% 30.40 in 10.0 mi North 15.0 mph 21.9 mph N/A Snow Light Snow
10:35 AM 24.8 °F 12.4 °F 21.2 °F 86% 30.40 in 4.0 mi North 15.0 mph 23.0 mph N/A Snow Light Snow
10:55 AM 24.8 °F 14.0 °F 23.0 °F 93% 30.39 in 7.0 mi North 11.5 mph - N/A Snow Light Snow
11:15 AM 24.8 °F 12.9 °F 23.0 °F 93% 30.39 in 2.0 mi North 13.8 mph 19.6 mph N/A Snow Light Snow
11:35 AM 26.6 °F 16.2 °F 23.0 °F 86% 30.39 in 3.0 mi North 11.5 mph 20.7 mph N/A Snow Light Snow
11:55 AM 26.6 °F 15.7 °F 23.0 °F 86% 30.39 in 2.5 mi North 12.7 mph 18.4 mph N/A Snow Light Snow
12:15 PM 26.6 °F 16.2 °F 23.0 °F 86% 30.39 in 4.0 mi North 11.5 mph - N/A Snow Light Snow
12:35 PM 26.6 °F 14.3 °F 21.2 °F 80% 30.37 in 9.0 mi North 16.1 mph - N/A Snow Light Snow
12:55 PM 26.6 °F 16.2 °F 23.0 °F 86% 30.36 in 7.0 mi North 11.5 mph - N/A Snow Light Snow
1:15 PM 28.4 °F 16.6 °F 23.0 °F 80% 30.35 in 8.0 mi North 16.1 mph 24.2 mph N/A Snow Light Snow
1:35 PM 28.4 °F 19.1 °F 21.2 °F 74% 30.35 in 10.0 mi North 10.4 mph 19.6 mph N/A Snow Light Snow
1:55 PM 28.4 °F 19.1 °F 21.2 °F 74% 30.33 in 10.0 mi North 10.4 mph - N/A   Overcast
2:15 PM 28.4 °F 20.4 °F 21.2 °F 74% 30.32 in 10.0 mi North 8.1 mph - N/A   Overcast
2:35 PM 28.4 °F 21.2 °F 21.2 °F 74% 30.31 in 10.0 mi North 6.9 mph - N/A   Overcast
2:55 PM 28.4 °F 19.7 °F 21.2 °F 74% 30.29 in 10.0 mi North 9.2 mph - N/A   Overcast
3:15 PM 30.2 °F 21.3 °F 19.4 °F 64% 30.29 in 10.0 mi North 10.4 mph 17.3 mph N/A   Mostly Cloudy
3:35 PM 30.2 °F 20.8 °F 19.4 °F 64% 30.28 in 10.0 mi NNW 11.5 mph - N/A   Overcast
3:55 PM 30.2 °F 21.9 °F 19.4 °F 64% 30.28 in 10.0 mi North 9.2 mph - N/A   Overcast
4:15 PM 32.0 °F 24.2 °F 19.4 °F 60% 30.28 in 10.0 mi North 9.2 mph - N/A   Overcast
4:35 PM 30.2 °F 21.9 °F 19.4 °F 64% 30.27 in 10.0 mi North 9.2 mph - N/A   Scattered Clouds
4:55 PM 30.2 °F 21.3 °F 19.4 °F 64% 30.28 in 10.0 mi NNW 10.4 mph - N/A   Partly Cloudy
5:15 PM 30.2 °F 22.6 °F 19.4 °F 64% 30.27 in 10.0 mi NNW 8.1 mph - N/A   Mostly Cloudy
5:35 PM 30.2 °F 21.9 °F 17.6 °F 60% 30.27 in 10.0 mi NNW 9.2 mph - N/A   Overcast
5:55 PM 28.4 °F 21.2 °F 17.6 °F 64% 30.27 in 10.0 mi NNW 6.9 mph - N/A   Mostly Cloudy
6:15 PM 28.4 °F 22.2 °F 19.4 °F 69% 30.26 in 10.0 mi NW 5.8 mph - N/A   Overcast
6:35 PM 28.4 °F 23.3 °F 21.2 °F 74% 30.27 in 10.0 mi NW 4.6 mph - N/A   Overcast
6:55 PM 26.6 °F 21.2 °F 21.2 °F 80% 30.27 in 10.0 mi WNW 4.6 mph - N/A   Overcast
7:15 PM 26.6 °F 22.6 °F 21.2 °F 80% 30.27 in 10.0 mi NW 3.5 mph - N/A   Overcast
7:35 PM 26.6 °F 21.2 °F 23.0 °F 86% 30.27 in 10.0 mi WNW 4.6 mph - N/A   Overcast
7:55 PM 26.6 °F 21.2 °F 23.0 °F 86% 30.27 in 10.0 mi WNW 4.6 mph - N/A   Overcast
8:15 PM 24.8 °F 17.9 °F 21.2 °F 86% 30.26 in 10.0 mi NW 5.8 mph - N/A   Overcast
8:35 PM 24.8 °F 16.9 °F 21.2 °F 86% 30.27 in 10.0 mi NW 6.9 mph - N/A   Overcast
8:55 PM 24.8 °F 16.9 °F 19.4 °F 80% 30.27 in 10.0 mi NW 6.9 mph - N/A   Overcast
9:15 PM 24.8 °F 16.1 °F 19.4 °F 80% 30.27 in 10.0 mi NW 8.1 mph - N/A   Overcast
9:35 PM 24.8 °F 16.9 °F 19.4 °F 80% 30.27 in 10.0 mi NW 6.9 mph - N/A   Overcast
9:55 PM 23.0 °F 14.7 °F 19.4 °F 86% 30.27 in 10.0 mi NW 6.9 mph - N/A   Overcast
10:15 PM 23.0 °F 14.7 °F 17.6 °F 80% 30.27 in 10.0 mi NW 6.9 mph - N/A   Overcast
10:35 PM 23.0 °F 13.9 °F 17.6 °F 80% 30.27 in 10.0 mi NW 8.1 mph - N/A   Mostly Cloudy
10:55 PM 21.2 °F 12.6 °F 17.6 °F 86% 30.27 in 10.0 mi NW 6.9 mph - N/A   Scattered Clouds
11:15 PM 19.4 °F 11.5 °F 15.8 °F 86% 30.27 in 10.0 mi WNW 5.8 mph - N/A   Scattered Clouds
11:35 PM 19.4 °F 9.5 °F 15.8 °F 86% 30.27 in 10.0 mi WNW 8.1 mph - N/A   Scattered Clouds
11:55 PM 17.6 °F 8.2 °F 15.8 °F 93% 30.26 in 10.0 mi WNW 6.9 mph - N/A   Partly Cloudy